Wind_Speed
75 75 75 75 75 75 74 75 76 77 79 80 80 82 87 91 92 91 89 88 86 84 83 81 79 77 76 75 74 74 73 71 70 69 66 61 58 56 54 54 50 45 43 42 43 41 39 39 36 35 33 34 33 31 34 34 33 33 32 31 29 26 25 25 24 25 24 20 19 21 19 18 17 17 16 15 15 14 14 15 16 16 16 16 17 16 16 16
75 75 75 75 75 76 75 75 76 77 79 81 81 81 84 89 93 93 91 89 87 86 84 83 81 78 77 76 75 75 74 74 73 71 67 62 60 58 56 55 51 46 45 44 43 42 41 40 38 37 36 36 36 35 35 33 34 35 33 32 29 26 26 28 28 27 24 21 22 23 21 20 18 18 17 17 17 15 15 15 16 17 17 17 18 18 18 17
73 74 74 74 75 75 76 76 76 77 78 80 82 82 82 86 92 94 93 91 89 87 86 84 82 80 79 77 76 75 76 76 75 71 67 64 63 60 58 56 52 48 46 44 44 44 43 43 42 41 39 38 38 37 36 34 33 34 35 33 28 27 30 32 30 26 24 24 25 24 22 21 20 19 19 19 18 17 17 16 16 17 17 17 19 19 19 18
71 71 72 73 73 74 75 76 76 76 77 79 82 83 83 84 90 95 95 93 91 88 87 85 84 82 80 78 76 76 76 78 77 71 67 66 64 62 59 56 54 51 47 46 47 47 46 46 46 43 41 40 38 36 36 34 31 33 35 31 28 31 35 34 32 28 26 27 26 25 24 23 22 21 20 20 20 20 19 17 16 16 16 17 19 18 18 18
68 69 70 71 72 73 74 75 75 76 76 78 80 83 84 83 87 93 95 94 92 89 87 86 85 83 81 79 77 76 78 80 77 72 69 67 65 63 59 56 57 54 49 50 51 49 48 47 46 45 43 41 39 36 35 34 32 33 31 29 32 36 38 35 32 30 28 27 27 27 26 24 22 22 22 21 21 21 18 17 16 15 15 17 18 19 19 18
66 67 68 69 70 71 72 73 74 75 76 77 79 81 84 84 85 90 95 96 94 91 88 86 85 85 83 80 78 77 79 81 78 73 70 68 66 65 61 58 58 55 51 54 53 48 47 48 47 46 44 42 39 36 35 35 35 34 29 30 35 37 38 33 29 30 30 28 28 28 27 24 24 24 23 22 23 21 19 19 17 15 16 17 18 20 21 20
64 66 67 68 69 70 71 71 72 74 75 76 77 79 82 84 84 87 93 96 95 92 89 86 85 85 84 82 80 80 81 82 78 74 71 70 68 67 64 61 60 56 53 55 53 48 46 47 49 47 44 43 40 36 35 36 38 36 30 32 35 37 39 33 29 33 32 30 29 28 26 26 26 25 23 23 24 21 20 20 17 15 16 18 19 21 22 22
63 64 65 66 67 68 69 70 71 72 74 75 76 77 80 82 84 84 89 95 95 93 90 86 84 85 85 84 82 83 83 81 79 76 72 71 70 69 67 64 62 59 55 54 54 51 48 48 49 48 46 45 41 36 36 38 39 37 34 36 35 35 36 32 32 36 34 31 30 28 28 28 27 25 23 25 26 23 21 20 18 17 17 19 20 22 22 23
61 62 64 65 66 67 68 69 70 71 72 74 75 76 77 80 83 83 86 93 94 93 90 84 82 84 85 85 83 85 83 77 77 78 74 71 72 71 69 66 64 62 57 55 54 54 52 49 49 47 47 45 41 38 39 40 40 37 36 38 36 34 34 33 35 36 33 32 30 29 30 29 28 26 25 27 27 23 22 21 20 19 19 19 20 21 22 22
59 60 62 63 64 65 66 67 68 70 71 73 74 75 76 78 81 83 84 90 93 92 89 84 82 83 86 86 85 87 81 74 77 79 75 72 72 71 70 68 66 64 61 59 56 54 53 49 48 48 48 47 43 41 41 43 42 38 38 39 38 37 34 33 35 35 33 32 31 30 31 30 30 28 26 28 28 24 22 22 21 20 20 20 20 20 21 22
56 57 59 60 62 63 65 66 67 69 70 72 74 74 75 77 80 82 82 87 91 90 86 83 82 81 85 87 87 86 79 74 77 79 77 73 71 70 69 68 68 66 65 62 59 56 53 50 49 52 52 48 44 43 44 46 45 39 39 41 38 37 34 32 32 31 31 32 32 32 32 32 30 27 26 28 28 24 24 23 22 22 21 21 21 19 20 21
53 54 55 57 59 61 63 65 67 68 70 72 73 74 75 76 79 80 80 83 87 89 83 77 78 79 84 88 87 85 78 74 75 75 75 73 70 70 70 70 69 68 67 66 62 58 54 51 50 53 53 49 45 44 47 49 46 42 42 42 37 37 37 33 32 30 29 31 31 32 34 31 26 25 27 29 29 26 25 25 23 23 23 22 22 20 19 20
50 51 52 53 55 58 60 63 65 67 68 70 71 73 74 76 78 78 79 79 80 84 80 73 75 79 83 87 87 84 78 75 75 72 72 70 69 70 70 71 71 69 70 70 65 59 55 53 51 54 55 52 48 48 50 49 46 45 46 43 39 40 40 35 32 30 29 29 29 32 33 29 25 25 29 30 29 29 27 25 24 24 23 23 22 21 20 19
47 47 48 49 51 54 57 60 61 63 66 68 70 71 72 75 76 76 77 76 73 74 75 73 73 78 84 86 84 83 79 77 76 74 72 69 68 71 72 71 72 72 72 71 68 62 57 54 54 57 58 56 53 52 52 48 46 48 48 45 44 43 40 35 33 31 29 29 28 32 31 26 26 28 31 32 31 31 27 24 25 24 24 24 23 23 21 20
46 45 46 47 48 50 53 55 57 59 62 65 66 67 69 72 73 75 75 74 72 69 70 72 71 77 83 85 84 83 81 81 79 76 74 71 68 70 74 75 74 73 73 72 70 66 61 58 58 60 61 60 57 57 56 50 49 51 49 47 46 45 39 35 36 33 30 29 29 32 28 23 27 31 33 33 31 31 29 26 26 25 24 24 24 24 23 21
47 45 45 43 43 47 50 52 53 56 59 60 61 61 65 66 66 71 74 75 75 71 69 71 69 73 80 83 84 84 84 83 79 76 76 73 69 67 70 75 76 74 73 73 72 69 65 63 62 61 64 64 61 61 60 54 52 53 52 49 47 46 40 38 39 34 30 30 30 29 24 22 28 31 31 32 32 32 32 29 27 26 25 25 25 25 24 23
45 45 43 39 39 44 48 49 51 54 56 56 55 54 58 60 59 65 73 78 80 75 73 73 67 67 76 82 83 84 86 84 80 78 78 76 73 68 68 71 76 75 73 73 73 71 69 68 67 64 65 66 62 63 63 58 56 55 54 51 48 46 42 42 41 35 33 32 29 28 24 24 28 28 29 31 34 36 35 33 30 27 26 25 24 24 23 22
43 42 41 38 39 43 45 47 49 51 52 52 53 51 52 57 59 62 71 80 85 82 78 77 70 63 70 81 84 83 84 84 82 79 77 78 76 71 69 70 74 77 75 74 74 73 72 71 69 66 67 66 63 65 65 60 58 56 55 53 49 47 44 43 40 35 36 34 30 30 27 24 26 26 28 32 36 39 38 35 32 29 26 24 23 23 22 21
42 42 40 36 36 40 43 45 47 48 49 50 53 53 52 57 62 64 70 80 87 87 85 82 74 65 66 74 80 82 83 84 85 82 76 76 78 72 69 70 73 78 78 77 77 75 74 73 71 70 72 72 65 63 63 60 59 56 56 53 47 47 42 39 40 36 37 37 32 31 28 26 28 28 28 33 37 40 40 36 33 30 26 24 23 23 23 20
43 42 41 37 37 39 41 44 46 47 48 48 50 54 56 59 64 66 71 79 84 87 89 86 79 70 65 67 72 77 84 87 88 88 75 67 73 71 67 70 72 79 81 79 78 76 75 73 71 71 72 71 65 61 61 60 60 58 57 54 47 47 41 37 42 40 38 39 35 34 32 30 31 30 29 32 36 39 39 35 31 30 27 25 25 25 24 22
44 42 41 40 40 40 41 44 47 48 48 48 48 51 55 58 61 63 67 76 83 84 87 89 85 79 72 70 73 73 81 90 92 94 79 61 66 66 62 66 70 79 83 80 79 77 77 75 71 68 67 66 64 62 62 61 61 61 60 56 49 46 41 39 45 42 38 40 38 36 35 33 32 30 29 30 33 34 36 35 31 30 29 27 27 26 25 24
44 42 42 42 40 40 42 44 47 49 49 51 52 51 55 57 55 56 65 76 84 83 83 86 86 84 78 74 79 79 82 90 94 99 89 68 64 64 59 62 66 75 82 82 83 80 81 78 68 65 65 64 65 65 63 62 62 63 62 57 50 47 43 44 47 42 38 40 40 39 37 34 33 32 31 31 30 28 32 34 30 29 29 27 26 25 24 24
45 43 44 44 43 42 43 45 47 50 51 52 55 54 56 58 51 54 68 79 86 86 83 84 84 84 82 73 75 84 86 88 93 100 97 79 66 60 57 61 63 70 81 85 85 83 84 78 63 62 67 64 66 68 65 63 62 64 64 58 51 48 46 46 45 39 37 41 42 41 39 36 35 35 34 33 30 27 30 32 29 28 26 25 24 22 22 22
47 45 45 44 44 43 43 45 46 51 53 52 55 57 58 59 53 53 67 80 88 90 87 85 82 80 84 74 66 79 88 87 91 99 102 92 76 59 54 59 60 66 80 84 84 83 81 76 62 60 67 67 67 69 67 66 64 63 65 59 50 47 46 46 43 37 36 41 42 43 43 40 37 37 36 34 33 31 31 31 28 27 24 23 21 18 17 18
47 46 44 41 43 43 41 44 46 49 53 54 55 58 60 62 58 53 64 81 90 93 90 86 79 75 81 71 56 69 86 89 91 97 102 102 90 70 57 59 58 62 76 82 82 82 80 79 70 59 59 64 66 66 67 68 65 63 63 57 48 46 46 45 43 39 37 41 43 44 46 43 38 38 37 36 36 33 31 30 29 27 24 22 19 16 16 17
46 45 42 40 41 42 41 44 46 47 51 56 57 56 59 63 61 55 62 80 91 95 94 87 77 72 75 64 49 60 80 89 92 97 101 102 96 80 65 63 61 56 66 77 80 81 81 82 79 65 52 55 63 65 65 67 66 64 59 51 47 47 48 48 47 44 42 42 44 46 48 45 40 38 38 37 36 35 32 30 29 26 24 22 19 18 17 17
45 45 44 42 41 42 45 46 46 47 49 55 58 56 57 60 61 59 60 76 91 98 97 90 78 72 69 57 48 58 72 84 90 97 104 102 96 84 67 63 65 59 60 69 78 83 83 83 84 75 56 50 59 63 61 63 65 62 55 50 49 52 53 53 50 48 46 46 47 47 48 48 44 38 39 39 37 36 34 31 29 25 23 24 22 21 19 18
44 45 46 44 43 45 48 48 46 46 48 52 55 55 55 57 60 60 60 72 89 99 100 93 80 72 65 52 49 57 64 76 86 94 105 103 96 86 68 58 61 62 63 68 75 82 85 84 83 79 66 52 53 57 55 56 59 58 55 53 51 53 55 54 50 46 46 49 52 50 48 50 47 40 38 40 39 36 34 31 29 25 25 27 25 23 22 22
45 45 44 43 46 48 49 50 48 47 48 50 51 52 54 57 59 59 62 71 84 97 102 96 83 73 63 52 50 51 54 69 83 90 101 102 97 89 71 57 54 56 63 68 73 79 82 84 82 80 76 62 52 50 49 50 55 55 55 54 52 54 54 52 50 47 48 52 52 50 47 48 50 44 39 41 39 34 31 31 30 27 27 28 27 25 25 25
46 45 44 44 47 48 49 51 50 48 48 50 51 51 51 56 59 59 63 69 79 94 103 101 90 77 65 55 50 43 43 64 82 87 96 101 100 93 74 59 53 53 57 62 68 76 79 81 79 77 79 74 64 57 49 48 55 58 57 56 54 55 53 48 49 50 51 54 51 47 46 47 51 48 42 40 36 30 29 29 29 27 27 28 26 25 26 27
45 43 43 45 47 47 47 50 50 46 47 49 51 53 51 54 58 60 63 65 72 90 103 104 97 85 72 59 48 40 39 58 78 85 93 100 101 97 82 65 57 56 59 60 64 72 77 79 75 71 74 77 74 68 58 53 56 59 60 60 57 56 52 48 50 52 55 55 51 47 47 50 52 49 45 39 30 27 27 26 28 28 28 27 26 26 27 27
46 42 42 44 46 45 44 46 47 45 45 48 49 52 52 52 56 59 62 62 68 84 99 105 103 92 80 66 52 44 41 53 72 81 89 99 101 99 90 72 60 62 66 65 64 67 73 76 76 72 73 76 75 72 67 61 59 61 62 61 60 57 52 50 52 54 56 57 53 50 50 52 51 47 46 39 28 26 27 26 27 28 27 26 26 26 27 27
47 43 41 43 44 45 44 44 45 45 44 47 51 52 52 54 57 58 61 63 66 78 93 103 106 96 85 75 64 53 44 47 62 75 83 93 101 101 93 78 65 64 68 68 66 67 69 73 75 73 72 76 75 73 73 69 63 62 60 59 61 61 57 55 55 55 56 57 56 54 52 51 49 46 47 42 31 28 29 28 27 28 27 27 27 26 26 26
48 43 41 41 42 45 46 44 44 45 42 43 50 53 55 58 59 57 59 62 63 71 86 100 106 102 93 82 67 56 48 43 51 66 76 85 97 102 98 89 78 70 69 70 69 69 70 73 77 77 75 77 78 75 74 71 65 61 58 57 59 59 56 54 54 55 55 55 56 57 56 51 48 48 48 45 35 29 30 30 29 29 29 28 27 25 24 25
49 44 41 41 42 41 43 43 45 48 45 43 48 53 57 62 62 60 60 61 60 66 80 93 102 106 101 89 73 59 51 42 42 54 68 78 88 97 99 94 86 78 73 71 70 70 71 72 76 80 81 80 79 76 73 70 69 68 65 64 62 59 56 54 55 55 55 55 55 57 57 53 49 50 51 47 39 32 31 32 31 31 31 29 28 26 26 26
49 46 41 40 42 40 40 43 45 48 47 47 50 53 56 59 61 62 61 60 60 63 74 84 92 101 104 99 85 68 56 47 40 43 56 70 80 88 93 90 85 81 75 71 71 71 73 72 72 76 79 79 77 74 72 71 73 74 74 74 73 68 64 63 62 61 60 59 58 57 56 54 53 53 53 50 44 38 35 34 32 32 32 32 31 30 29 29
47 46 44 41 40 40 41 43 44 46 47 49 52 53 53 54 55 58 60 60 60 62 66 74 81 89 98 103 97 81 66 55 46 40 43 58 73 81 85 84 84 82 75 71 70 69 72 74 74 74 76 77 76 73 71 71 72 75 76 76 74 70 67 66 65 65 65 63 59 56 54 53 54 55 55 53 47 43 40 36 33 33 34 35 35 34 33 32
45 44 45 43 40 40 42 44 44 45 45 48 51 50 49 52 53 54 56 57 59 61 61 65 72 78 85 97 100 92 80 65 54 46 40 45 61 75 81 81 82 83 77 72 70 67 67 71 75 77 76 77 77 75 74 73 73 74 73 72 72 71 69 67 66 66 67 66 62 58 56 55 54 53 54 54 49 46 44 40 35 35 36 36 36 36 35 35
44 42 44 45 42 40 42 44 43 44 45 48 52 51 47 48 51 53 54 54 56 58 57 58 64 70 76 87 96 97 93 80 62 51 46 44 48 61 74 77 79 81 78 73 71 68 66 68 72 74 76 78 79 76 75 75 74 73 73 72 72 71 69 67 67 66 67 67 66 64 62 59 55 52 53 54 51 49 48 45 41 38 38 38 38 37 37 37
42 40 43 45 44 42 44 45 45 44 44 46 51 52 49 47 48 51 53 53 54 55 55 53 55 60 65 75 86 94 99 94 75 55 49 50 47 48 61 70 71 73 75 75 74 70 68 71 73 73 73 76 79 79 77 75 73 73 74 74 74 74 73 70 68 67 68 69 68 68 67 63 58 56 55 54 53 53 52 49 46 43 42 43 43 41 40 39
43 40 42 45 45 44 47 49 48 45 43 43 46 49 50 49 47 48 51 53 53 53 54 53 52 54 56 61 71 82 92 96 89 68 51 53 54 46 48 58 62 62 68 75 76 73 71 72 74 75 73 72 74 74 72 70 71 71 72 74 74 74 74 73 72 71 71 71 69 69 68 66 63 63 60 57 56 56 56 54 51 47 45 46 46 44 41 38
45 41 42 44 44 44 47 50 50 48 45 43 44 46 48 50 49 48 50 52 52 52 52 51 50 52 55 55 57 67 78 85 91 84 61 52 57 51 42 47 54 53 56 67 73 73 72 73 73 73 72 69 67 67 66 64 65 67 69 70 71 72 71 71 70 70 70 69 68 68 69 67 65 66 65 63 61 60 59 58 55 51 47 45 45 42 41 39
45 42 42 43 44 43 45 48 49 49 48 45 46 47 47 49 51 50 49 50 51 51 50 48 46 48 53 55 51 52 61 70 80 87 74 55 54 58 50 45 48 48 46 52 65 72 72 72 72 71 70 68 65 62 61 59 58 60 63 64 67 70 70 67 66 66 68 70 68 69 70 67 65 66 67 66 63 61 61 58 55 52 47 44 41 39 38 38
44 42 42 43 45 45 45 45 46 46 46 46 48 50 49 49 51 51 50 49 49 48 48 45 43 44 48 55 55 49 50 57 65 77 81 67 56 59 59 51 47 48 46 45 55 67 70 69 69 67 66 67 64 61 59 58 56 55 54 55 58 62 64 64 64 65 68 70 69 69 71 68 66 68 69 67 63 60 58 55 51 48 45 41 38 37 36 35
46 44 43 43 44 45 45 45 44 44 44 44 46 50 51 51 51 52 51 50 47 46 46 43 41 42 44 52 59 52 43 47 56 65 77 78 68 62 62 59 53 49 47 47 48 54 62 65 65 65 65 66 65 62 58 55 54 53 51 50 51 54 58 61 63 66 69 70 69 70 71 70 69 70 71 69 63 57 52 49 46 43 42 40 38 37 36 35
48 48 46 44 43 45 46 45 44 45 44 44 45 48 50 51 51 51 51 50 47 45 45 42 39 40 41 48 60 57 41 38 48 57 66 77 79 73 65 63 62 54 48 49 50 49 52 54 55 59 64 65 64 61 56 52 51 51 51 51 51 53 56 57 61 65 65 64 67 69 69 69 69 70 70 67 61 54 47 44 43 42 40 38 37 37 38 38
48 50 49 46 45 46 47 46 46 46 45 44 45 47 49 50 50 52 53 51 48 45 44 43 40 39 39 43 56 61 48 37 40 47 57 69 78 81 75 67 66 62 51 48 52 53 51 49 46 49 56 62 63 61 58 55 51 49 48 49 50 52 54 57 59 59 57 58 63 63 62 63 63 62 61 57 52 50 46 43 42 41 39 38 39 41 42 43
48 49 49 48 46 46 46 45 45 46 46 46 46 46 48 50 51 52 53 52 50 48 47 45 42 39 39 40 50 61 55 42 40 41 46 59 70 78 81 75 71 68 58 49 48 53 55 51 45 45 50 57 61 62 61 59 56 53 52 50 48 48 51 54 53 51 52 57 56 52 53 55 52 50 49 47 47 47 46 45 44 41 40 41 43 44 45 45
48 48 48 47 47 46 44 42 42 44 46 48 48 47 47 50 52 52 53 53 52 50 48 47 44 41 40 38 45 59 58 44 41 43 42 49 58 65 72 76 76 76 71 59 50 49 54 56 50 45 47 51 56 60 60 60 60 59 57 54 53 52 50 50 47 45 49 52 46 42 46 48 45 43 44 45 47 46 47 47 45 41 42 44 45 46 46 46
47 48 48 47 46 46 44 43 43 45 47 50 51 50 48 49 52 52 53 53 51 49 47 46 42 40 41 39 40 53 60 46 38 44 45 43 46 50 56 63 70 77 81 77 67 55 54 57 54 47 47 49 51 54 57 58 59 61 59 56 55 54 52 51 49 46 49 48 40 40 46 47 45 44 44 45 47 46 47 47 43 40 43 46 46 46 47 47
46 47 47 47 46 46 45 45 46 47 50 53 54 53 50 50 51 52 53 53 51 49 46 43 41 39 41 43 41 46 59 54 38 37 43 43 42 43 45 50 56 64 73 81 83 73 66 66 59 49 48 52 50 49 53 55 56 58 60 58 54 53 53 52 47 46 48 45 41 45 48 46 45 45 44 46 48 48 47 45 41 42 45 47 47 48 48 48
45 45 46 46 46 47 46 46 47 48 50 52 54 55 53 50 50 52 54 54 51 50 47 44 43 42 42 44 40 39 54 64 51 38 38 42 43 42 41 44 49 54 60 70 80 81 78 77 71 57 48 48 50 51 52 53 57 60 59 55 52 51 51 50 48 48 48 45 44 47 44 41 43 45 46 49 50 48 46 44 43 43 46 48 49 50 50 50
Wind_Direction
239 239 238 238 237 237 236 234 232 231 230 230 230 229 226 224 224 225 225 225 225 224 224 224 223 222 221 220 220 222 223 223 222 222 221 219 219 220 221 222 221 220 221 221 224 223 221 222 219 221 222 217 218 224 229 225 218 218 215 212 210 209 212 214 215 219 218 215 223 226 222 221 219 223 226 224 225 227 228 226 224 220 211 205 206 208 210 213
239 239 238 238 237 237 236 235 233 231 230 230 230 230 227 225 224 224 224 224 225 224 224 224 224 222 221 220 219 221 223 223 223 222 220 219 219 219 221 222 220 220 222 222 224 225 223 223 221 220 222 221 218 222 227 225 221 219 217 213 210 211 215 216 217 220 218 214 222 226 224 224 222 223 225 226 226 225 228 227 224 222 215 210 210 210 211 213
239 238 238 238 237 236 236 235 234 232 231 230 230 230 229 226 224 224 224 224 224 224 224 224 224 222 222 221 219 220 222 223 223 222 221 219 219 219 220 221 220 220 221 223 225 226 224 223 223 220 220 223 222 222 224 225 224 221 218 214 209 214 218 218 218 221 221 216 220 225 224 224 224 224 225 226 228 225 226 226 223 222 218 215 214 214 214 216
239 238 238 237 237 236 236 235 234 233 231 230 229 230 230 227 225 223 223 224 224 224 224 224 224 223 222 221 220 220 221 223 222 221 221 220 219 219 219 220 219 218 219 224 227 226 224 223 224 222 220 223 225 224 224 225 225 222 220 215 211 217 221 219 218 221 223 220 220 225 225 224 225 226 226 227 228 228 227 227 227 225 221 217 217 217 218 221
238 238 237 237 236 236 235 235 234 233 232 231 229 229 230 229 226 224 223 224 224 223 223 224 224 224 223 222 221 220 221 222 220 219 220 219 219 219 218 219 220 218 217 224 227 225 224 224 225 225 222 222 225 225 225 225 224 224 220 213 213 218 221 218 217 223 226 224 221 224 226 225 226 228 228 228 229 230 230 229 231 230 227 223 220 218 218 221
238 237 236 236 236 235 235 234 234 233 232 231 230 229 230 230 228 225 223 223 224 223 222 223 224 224 223 222 222 221 220 220 218 218 219 219 218 218 217 217 219 218 218 223 226 225 225 226 226 226 225 223 224 224 225 226 226 226 220 215 216 219 223 217 216 226 229 227 223 225 228 226 228 229 230 231 232 231 229 229 228 226 228 227 223 220 218 218
237 237 236 235 235 235 235 234 234 233 232 232 231 229 229 230 229 226 223 223 223 223 222 222 223 224 224 222 222 221 220 219 217 217 219 218 218 218 216 215 217 216 218 223 225 222 223 228 229 228 228 226 225 223 225 227 229 227 221 220 218 219 223 217 215 225 227 227 225 225 227 228 229 230 231 234 235 231 230 232 227 221 225 228 225 223 221 219
236 236 235 235 235 235 234 234 233 233 232 232 231 230 229 229 230 227 224 223 223 223 223 222 221 223 224 222 222 222 220 218 217 217 217 218 218 218 216 214 215 214 216 221 222 219 218 225 230 229 228 228 226 224 225 228 230 229 224 225 222 221 224 219 218 223 225 226 225 223 226 229 231 231 231 234 236 232 232 233 227 220 223 227 227 227 226 223
235 234 234 234 234 234 234 234 233 233 232 232 231 230 229 228 229 228 225 223 223 223 222 222 220 222 224 222 222 223 220 218 219 219 217 217 217 217 216 214 214 214 215 218 220 219 216 220 228 230 230 229 227 224 225 228 230 229 227 227 224 224 224 219 220 223 224 226 226 225 227 231 233 233 231 234 236 233 232 232 227 222 222 227 228 228 230 228
233 233 233 234 234 234 234 234 233 233 232 231 231 230 229 228 228 228 225 223 222 222 222 222 220 221 224 222 222 223 219 218 221 221 218 216 217 218 216 215 214 213 215 217 220 221 218 217 224 230 231 229 226 225 226 229 230 228 228 228 224 224 223 219 222 224 223 226 227 227 228 230 233 234 233 236 238 233 232 232 228 226 224 227 229 230 232 232
232 232 232 233 233 233 233 233 233 232 232 231 230 229 228 226 226 227 225 222 222 221 220 222 221 220 224 224 223 222 218 218 220 221 220 217 217 218 217 216 215 214 214 217 219 222 221 218 221 228 230 229 227 226 227 229 229 227 228 230 225 224 224 220 221 222 222 225 227 228 228 228 230 234 236 239 240 235 233 233 229 228 227 229 231 231 232 233
231 231 232 232 233 233 233 233 233 232 231 231 229 228 227 225 225 225 224 221 221 221 218 220 221 219 223 224 223 222 218 218 220 221 222 218 217 218 218 216 216 215 215 217 219 221 222 219 221 228 231 230 230 228 227 229 229 226 228 231 227 226 225 221 221 221 221 224 226 228 229 227 227 233 237 240 242 238 233 232 230 229 229 230 232 233 232 233
231 231 232 233 234 234 234 233 233 232 231 230 228 227 225 224 223 223 222 218 218 220 216 216 219 218 221 223 222 221 218 217 219 221 221 219 218 218 218 217 216 215 216 218 219 220 222 221 221 228 232 232 230 229 229 229 230 228 229 230 228 227 225 222 222 222 222 225 226 229 229 225 222 230 237 239 241 241 236 232 232 231 230 231 233 234 234 233
231 233 235 236 237 237 236 234 232 231 229 228 227 226 224 222 221 221 219 214 214 216 213 213 218 219 221 222 221 220 218 216 218 219 219 218 218 218 218 217 217 217 216 218 219 220 221 221 221 226 231 232 231 232 232 229 230 230 229 230 230 228 225 223 225 224 224 226 227 231 229 223 221 226 235 238 239 242 240 234 233 233 231 231 233 234 236 235
231 234 237 238 239 238 236 234 231 229 227 226 225 224 223 221 219 218 216 210 209 212 211 211 215 220 222 221 220 218 217 216 216 218 218 217 218 218 218 217 217 217 217 217 219 219 219 220 222 226 230 231 230 232 233 229 228 231 230 229 231 231 227 225 228 225 225 226 227 231 228 221 223 224 231 237 239 242 244 240 235 234 232 232 233 235 236 236
233 235 237 238 238 237 234 232 228 227 225 223 222 222 221 218 217 216 212 206 206 209 209 207 212 220 223 222 220 218 217 215 214 218 219 217 218 217 217 217 217 217 217 217 219 219 219 218 221 227 229 229 228 230 232 228 227 230 230 229 230 233 230 228 229 226 225 227 227 231 227 221 226 226 228 235 240 243 244 243 239 235 233 232 233 236 238 238
235 235 235 230 228 233 234 230 226 224 222 219 216 217 219 214 213 215 210 203 202 204 205 205 208 216 221 223 220 217 218 216 213 216 219 219 219 219 218 217 216 216 217 217 218 218 218 218 220 226 227 226 225 228 230 228 227 228 229 228 229 231 230 229 229 226 227 227 227 232 226 221 228 229 229 231 237 241 241 242 240 236 233 232 233 236 239 240
232 231 231 225 222 229 232 227 223 221 218 214 209 210 216 211 209 213 209 202 200 201 202 203 205 208 213 219 219 216 217 216 213 215 219 220 220 222 221 219 217 216 216 217 217 218 218 218 220 225 227 223 222 225 228 228 228 229 229 228 228 230 230 230 230 227 230 229 224 229 227 223 228 229 228 228 231 236 239 239 239 238 234 231 233 236 239 241
227 226 225 220 219 227 231 226 219 215 212 209 205 206 211 210 208 210 208 202 200 200 201 202 204 203 206 214 216 215 215 214 212 214 217 218 219 220 219 219 218 217 216 215 216 217 218 219 221 224 225 223 222 224 226 227 229 230 231 230 230 232 230 232 234 228 231 232 225 227 227 224 227 227 226 228 229 233 237 238 238 238 237 232 233 236 239 241
224 222 219 211 210 218 226 223 215 211 209 207 205 205 209 210 210 209 206 202 199 201 203 204 207 209 210 213 215 215 215 213 211 213 214 213 217 218 216 217 217 217 216 215 216 216 216 219 222 220 219 221 222 225 226 228 230 230 231 230 229 232 230 231 235 229 228 233 227 226 226 223 227 228 227 229 230 232 236 239 239 240 239 236 235 236 239 242
219 216 213 208 206 210 217 218 213 210 210 208 206 206 209 212 214 213 208 201 198 200 204 206 209 213 215 216 217 215 214 212 210 212 212 208 213 214 212 215 217 216 216 214 215 216 216 218 219 214 213 219 222 225 227 228 230 231 231 229 227 231 230 229 234 230 226 231 230 226 225 223 226 232 232 231 232 233 237 241 242 243 243 241 240 240 241 245
215 209 207 207 207 208 213 215 213 211 210 210 209 207 208 212 216 215 208 201 198 199 202 204 207 212 214 216 218 218 215 211 210 211 211 207 209 209 208 214 218 217 216 215 214 214 214 215 217 212 211 216 221 225 227 227 229 231 231 229 226 229 232 229 232 233 229 231 232 229 226 223 224 230 232 232 231 231 237 242 242 243 245 246 245 244 243 243
209 205 205 206 205 205 210 214 214 212 211 211 210 208 209 210 214 214 207 201 199 198 199 202 205 209 211 211 215 220 219 215 211 211 212 210 207 207 209 213 218 217 215 216 215 214 214 213 214 215 213 215 220 223 225 226 227 230 232 230 227 227 231 232 232 234 235 234 234 232 229 224 222 226 229 231 230 226 232 239 240 240 242 245 244 241 239 239
205 203 206 206 205 205 210 213 214 213 212 211 210 208 208 211 214 213 207 202 200 198 197 198 201 204 207 207 211 218 220 218 214 211 212 214 211 211 214 213 218 220 215 216 216 216 215 212 213 217 214 216 219 220 222 223 224 228 231 230 227 226 230 233 234 236 238 237 235 234 232 225 222 225 227 230 232 227 229 235 238 239 238 239 240 238 237 239
204 204 206 207 207 206 210 213 214 214 214 214 212 207 206 211 215 214 208 204 202 200 197 194 195 197 200 202 206 215 218 216 214 211 212 217 217 218 220 214 216 222 217 215 216 216 216 212 213 216 216 216 218 219 220 222 224 227 229 228 228 228 230 234 235 235 236 236 236 235 234 228 222 225 226 228 233 231 230 234 237 240 239 237 238 238 238 239
202 203 203 205 206 206 211 214 214 215 215 215 214 210 207 209 214 216 211 207 204 201 199 195 192 192 195 198 202 211 216 216 214 210 212 218 218 219 223 216 212 218 218 216 216 217 216 213 214 217 216 216 216 217 219 221 223 227 230 231 232 232 230 232 234 233 233 233 235 235 235 230 222 224 228 228 232 234 233 235 236 239 243 243 241 238 238 239
199 199 198 200 202 205 211 214 213 215 216 216 215 213 211 210 213 215 213 210 206 202 201 197 192 191 192 196 201 202 211 218 216 210 210 216 217 216 220 218 214 215 214 216 217 217 216 215 216 217 217 215 214 215 218 220 223 226 228 230 232 233 230 229 232 232 231 232 234 233 235 234 224 220 228 231 230 232 233 235 237 239 243 246 245 242 240 238
198 196 197 198 199 204 209 212 211 212 214 215 214 215 214 212 213 214 214 214 207 203 202 198 192 190 191 197 199 193 200 214 217 212 210 214 215 214 217 217 218 217 215 216 218 217 217 216 216 217 218 215 211 214 217 221 222 221 221 223 227 232 228 225 230 232 231 233 233 232 234 236 228 219 225 232 230 231 234 236 238 238 240 244 246 245 243 240
197 194 196 199 202 204 206 209 209 210 212 213 214 215 215 215 214 214 216 216 208 204 204 201 196 190 189 194 193 185 189 205 214 213 210 212 213 213 215 215 218 222 220 220 220 219 219 218 218 220 221 218 214 216 217 220 224 221 219 219 223 229 226 223 227 231 233 234 233 234 234 236 233 225 224 230 231 232 236 240 239 236 236 241 244 244 244 245
199 197 197 199 205 206 204 207 208 209 211 212 213 213 213 215 215 215 218 216 210 206 205 205 201 192 189 191 187 182 186 199 210 213 211 212 212 212 215 213 216 224 225 223 223 222 220 219 220 223 223 222 221 224 223 223 225 224 223 221 222 226 223 220 224 229 235 235 233 236 237 236 234 228 225 228 231 232 235 241 242 238 236 238 241 243 244 246
201 199 199 200 205 206 205 208 209 209 211 211 213 213 212 214 216 218 218 214 211 208 206 207 205 195 191 191 188 189 192 198 207 211 210 212 212 212 213 212 214 224 228 226 225 223 221 221 223 223 223 224 225 226 228 228 225 223 223 223 223 223 221 220 224 230 235 234 232 235 236 236 232 228 227 225 227 234 236 241 243 240 238 238 239 241 243 244
201 200 201 202 203 204 205 208 208 210 213 212 212 212 213 215 216 217 215 212 212 211 208 209 207 200 194 194 195 197 198 199 206 211 210 211 212 212 213 213 215 221 224 225 226 225 223 223 223 222 223 226 226 226 227 229 228 224 221 221 223 222 222 224 227 232 235 234 233 234 236 236 231 230 234 230 228 236 239 242 246 245 242 241 241 242 244 246
202 201 203 202 203 203 204 205 204 206 211 213 214 212 213 217 217 216 213 211 213 212 209 209 209 203 197 197 201 201 198 195 202 211 211 210 212 213 213 214 218 223 224 225 227 227 226 226 224 223 224 225 227 227 226 226 228 226 222 220 223 224 225 228 229 231 234 235 236 238 240 238 232 233 239 240 240 241 241 242 248 250 246 243 243 243 245 247
203 202 205 204 203 204 205 205 203 203 205 209 214 214 213 216 216 214 214 215 214 212 210 210 210 207 202 200 201 201 197 190 193 207 213 213 212 213 215 215 217 221 224 225 229 230 230 229 225 222 223 225 227 229 229 228 230 231 228 224 223 224 227 230 232 234 238 240 240 242 244 240 234 235 240 245 248 246 245 244 245 251 252 248 247 246 246 247
203 202 204 205 203 203 205 204 203 206 207 207 212 215 216 216 215 214 216 217 215 213 213 213 212 211 207 202 201 200 197 192 188 198 210 216 215 214 216 217 217 219 220 219 224 230 232 232 229 224 223 225 227 229 229 229 229 231 232 231 230 231 232 234 235 236 238 240 241 243 243 239 237 237 240 246 249 250 252 251 249 253 256 256 255 253 251 251
203 202 203 204 202 200 201 202 201 205 210 211 213 216 217 215 214 215 217 218 217 216 217 218 217 217 213 208 205 201 197 195 190 191 203 213 217 217 217 218 219 220 221 218 218 224 228 232 233 231 228 228 229 230 230 229 229 230 231 233 235 237 238 239 239 238 239 240 239 240 241 240 240 239 240 244 248 251 256 259 257 257 257 258 259 257 256 255
206 206 206 205 202 199 199 201 200 202 208 213 215 217 217 215 214 216 216 216 218 218 219 221 221 221 219 215 210 205 201 200 194 190 198 206 213 216 217 218 219 220 221 218 215 218 225 230 233 233 233 233 233 234 233 231 230 231 232 234 236 237 238 239 240 241 242 242 239 238 240 241 241 240 239 242 245 249 256 263 265 262 260 260 259 259 259 258
207 207 206 204 201 198 199 201 203 205 211 215 215 214 214 214 214 215 214 214 216 218 220 222 223 224 224 221 216 210 207 207 202 197 199 203 208 213 216 217 217 218 219 216 213 214 220 226 230 231 232 233 234 234 234 232 229 230 234 236 237 237 237 238 240 241 242 241 239 237 239 240 240 240 240 242 245 249 255 263 266 265 264 263 262 262 261 260
205 204 204 202 199 197 199 201 203 205 210 215 214 211 211 212 213 213 212 213 215 217 220 223 224 226 227 224 221 217 213 212 209 207 206 207 206 207 211 214 215 215 215 214 213 212 215 220 225 229 231 232 233 232 232 232 230 229 230 232 234 236 237 238 240 242 243 243 242 241 241 241 241 241 241 242 245 249 255 262 266 266 266 267 266 266 265 264
202 204 204 201 199 199 200 202 204 205 208 214 214 213 213 212 212 212 211 212 215 216 219 222 221 223 227 227 225 223 220 217 214 212 211 211 208 203 205 209 211 212 213 214 214 214 216 219 222 225 228 229 231 232 233 234 234 233 232 232 233 234 235 235 236 238 240 242 242 243 243 242 242 242 242 243 247 252 256 262 266 267 266 266 266 265 265 265
202 206 206 203 201 202 203 204 205 206 208 212 212 211 212 211 211 211 210 211 214 216 219 222 222 219 221 227 228 226 226 222 217 215 213 212 210 204 202 205 206 209 212 215 215 215 219 221 223 225 226 227 230 233 234 235 235 236 236 237 238 237 236 234 234 235 238 240 242 243 243 242 242 243 244 245 250 254 257 261 265 265 264 263 263 262 262 262
204 207 208 205 203 204 206 207 207 208 210 212 210 208 208 209 211 211 210 211 214 216 219 223 224 220 217 222 228 228 228 227 222 217 214 212 212 208 203 205 206 206 211 214 215 216 220 223 224 226 227 227 229 231 231 232 233 233 233 234 237 237 237 236 237 238 240 243 244 245 245 243 243 245 246 247 251 255 257 260 262 264 263 262 261 261 260 261
205 209 209 207 206 204 205 207 208 210 211 212 211 208 207 208 210 211 210 212 214 216 220 223 224 223 219 218 224 228 229 229 226 222 216 212 212 212 210 209 208 209 212 214 214 216 218 221 223 225 227 228 229 229 228 228 229 229 229 229 231 234 236 237 238 240 241 242 244 246 246 244 244 247 249 250 253 256 258 260 262 262 262 260 259 258 258 258
201 205 208 210 209 207 206 206 208 210 210 211 210 208 207 208 210 210 210 212 213 215 219 223 224 225 221 217 218 225 229 229 229 226 220 215 212 211 212 211 209 211 214 215 214 216 218 219 221 223 224 225 226 226 225 223 224 226 228 229 232 235 236 236 236 237 239 240 241 244 245 243 244 247 248 251 254 256 258 259 260 260 259 258 255 252 251 250
199 201 205 209 210 208 207 207 209 210 210 210 210 209 209 209 210 211 211 213 213 214 217 220 220 221 219 214 213 218 226 229 230 228 223 219 218 214 212 212 210 209 213 215 214 215 218 221 222 222 223 223 224 225 224 224 225 226 227 228 231 234 236 236 237 236 237 238 239 242 243 243 243 245 247 249 252 254 256 257 257 256 255 254 251 248 246 245
208 207 205 205 207 207 207 209 211 213 212 210 210 211 212 211 211 211 213 213 213 214 216 218 218 219 218 213 210 212 218 225 229 229 225 223 223 220 215 214 214 213 215 220 221 219 220 222 223 225 225 225 226 227 226 227 228 228 228 228 228 230 230 231 232 234 236 239 240 241 242 243 245 246 248 249 251 253 253 253 252 251 250 249 248 247 246 244
216 214 211 207 207 208 209 210 211 212 214 213 212 212 212 212 211 212 213 214 214 214 216 218 218 219 219 215 209 209 211 217 222 227 229 227 225 224 221 218 217 216 217 224 229 229 228 228 230 231 228 227 228 227 226 228 230 230 231 231 229 228 228 228 229 232 235 237 239 241 242 244 246 248 249 248 248 249 249 248 248 247 247 247 247 246 244 243
221 219 216 213 212 211 212 214 214 214 216 215 214 214 212 211 211 213 215 216 216 215 216 218 218 219 221 218 211 207 207 212 214 216 225 229 228 227 226 224 222 219 217 219 225 230 232 230 233 236 232 229 229 227 226 228 231 233 233 231 231 232 234 235 235 235 235 237 240 241 242 243 243 245 247 246 244 245 246 246 245 244 242 242 242 243 243 243
223 221 218 216 215 214 213 214 216 217 218 217 216 214 213 213 213 215 216 218 218 217 218 220 219 220 223 222 216 208 203 206 211 208 216 228 229 229 229 228 227 225 223 220 219 223 229 229 230 232 230 231 232 229 227 228 231 233 234 233 234 236 237 238 237 236 237 240 240 238 239 240 238 238 240 241 241 240 240 240 240 236 235 236 239 241 242 244
223 222 221 220 219 216 216 215 214 215 217 218 216 214 214 214 214 216 218 220 220 219 220 222 223 225 226 225 223 213 203 201 205 205 210 223 228 229 231 230 229 230 229 227 225 223 225 228 229 229 226 227 231 231 230 230 231 233 235 236 236 236 235 235 235 234 236 238 235 231 233 235 233 232 231 233 236 234 232 232 231 229 230 232 236 238 240 241
225 224 224 225 224 221 219 217 216 216 216 217 215 214 215 215 215 218 221 221 222 221 222 223 224 226 226 225 225 216 206 202 201 199 204 214 220 224 228 229 230 231 231 231 231 230 229 228 227 227 226 224 225 228 229 230 232 233 233 233 234 235 235 236 237 237 237 237 234 230 232 234 233 230 228 229 231 229 227 225 225 228 231 232 233 236 238 240
226 226 227 228 228 225 222 219 218 218 218 217 214 214 215 215 216 220 223 223 222 223 222 221 220 222 223 223 224 220 210 206 206 205 201 201 205 213 219 224 227 229 230 231 231 232 234 233 230 228 227 224 223 225 227 229 232 231 229 230 233 236 238 239 238 239 238 236 233 233 237 237 230 224 223 223 224 224 224 224 226 231 235 234 234 236 237 238
Height
5640 5643 5647 5651 5655 5659 5663 5667 5672 5676 5680 5685 5689 5694 5700 5706 5712 5717 5723 5729 5735 5741 5745 5750 5754 5758 5761 5766 5770 5775 5779 5781 5785 5789 5796 5803 5806 5809 5811 5813 5818 5821 5823 5825 5825 5828 5830 5831 5834 5837 5840 5843 5845 5847 5847 5849 5850 5849 5851 5853 5856 5859 5861 5863 5865 5864 5866 5869 5869 5869 5871 5872 5873 5873 5874 5875 5876 5877 5878 5878 5879 5880 5881 5882 5883 5884 5885 5885
5632 5635 5639 5643 5647 5651 5655 5659 5664 5669 5673 5678 5682 5687 5692 5698 5704 5709 5716 5722 5728 5734 5740 5744 5748 5753 5756 5760 5765 5769 5772 5775 5779 5785 5794 5800 5802 5805 5808 5810 5815 5818 5820 5822 5823 5827 5829 5830 5831 5834 5837 5840 5842 5844 5845 5847 5847 5848 5849 5852 5855 5858 5859 5861 5861 5862 5865 5867 5867 5868 5869 5871 5872 5873 5873 5874 5875 5876 5876 5877 5878 5879 5881 5882 5882 5883 5884 5884
5623 5627 5631 5635 5639 5643 5647 5651 5656 5660 5666 5670 5674 5679 5684 5690 5696 5701 5709 5715 5721 5728 5733 5738 5742 5747 5751 5754 5759 5762 5766 5768 5773 5783 5791 5794 5797 5801 5804 5807 5811 5815 5818 5819 5821 5824 5826 5827 5828 5830 5833 5836 5839 5841 5843 5844 5845 5847 5847 5850 5855 5857 5856 5857 5859 5861 5864 5865 5865 5866 5868 5869 5871 5872 5872 5873 5873 5874 5875 5876 5877 5878 5879 5881 5881 5882 5883 5884
5615 5619 5623 5627 5631 5635 5639 5643 5647 5652 5658 5662 5667 5671 5676 5682 5687 5693 5701 5707 5714 5721 5727 5732 5736 5741 5745 5750 5753 5756 5760 5760 5769 5782 5787 5789 5794 5798 5801 5805 5807 5811 5815 5816 5818 5820 5822 5823 5824 5827 5830 5832 5836 5839 5840 5843 5845 5845 5845 5850 5854 5853 5852 5854 5856 5859 5861 5862 5864 5865 5866 5868 5869 5870 5871 5871 5872 5872 5873 5875 5876 5877 5879 5879 5880 5881 5882 5883
5607 5611 5615 5619 5623 5627 5631 5635 5640 5645 5649 5655 5660 5664 5668 5674 5679 5686 5693 5700 5706 5714 5721 5726 5731 5735 5739 5744 5747 5751 5752 5753 5765 5777 5780 5785 5790 5794 5798 5801 5803 5807 5811 5813 5815 5817 5819 5821 5822 5824 5826 5829 5833 5836 5839 5842 5844 5843 5845 5849 5849 5848 5848 5851 5855 5858 5859 5861 5863 5863 5864 5867 5868 5869 5869 5870 5870 5871 5873 5874 5875 5877 5878 5879 5879 5880 5881 5882
5600 5604 5608 5612 5615 5619 5623 5628 5633 5637 5642 5647 5652 5657 5661 5666 5672 5679 5685 5692 5699 5707 5714 5719 5725 5729 5733 5738 5741 5743 5744 5748 5762 5772 5775 5781 5785 5789 5794 5797 5799 5804 5807 5809 5812 5815 5817 5818 5820 5821 5824 5827 5830 5834 5838 5840 5841 5842 5845 5846 5845 5846 5846 5850 5855 5856 5857 5859 5861 5862 5863 5866 5866 5867 5868 5869 5869 5871 5873 5873 5874 5876 5877 5877 5878 5878 5879 5880
5592 5596 5600 5604 5608 5612 5616 5620 5625 5630 5634 5639 5644 5650 5654 5659 5665 5671 5678 5684 5692 5700 5706 5713 5719 5722 5727 5731 5733 5734 5738 5747 5761 5768 5771 5775 5779 5784 5788 5792 5795 5799 5804 5806 5810 5813 5815 5816 5817 5819 5822 5825 5828 5833 5836 5837 5838 5840 5844 5843 5842 5843 5843 5849 5853 5853 5854 5857 5858 5861 5863 5864 5864 5865 5867 5867 5868 5870 5871 5871 5873 5875 5875 5876 5877 5877 5877 5879
5584 5588 5592 5596 5600 5604 5609 5613 5618 5622 5627 5632 5637 5642 5647 5653 5657 5664 5671 5677 5685 5693 5700 5707 5713 5717 5720 5723 5727 5728 5735 5747 5757 5763 5766 5770 5773 5777 5782 5787 5790 5795 5800 5803 5806 5808 5811 5812 5814 5817 5820 5822 5826 5831 5833 5833 5835 5838 5841 5841 5840 5841 5842 5847 5850 5849 5852 5854 5856 5859 5860 5861 5863 5864 5866 5865 5866 5868 5870 5870 5872 5873 5873 5874 5875 5876 5876 5878
5577 5581 5585 5589 5593 5597 5601 5606 5610 5615 5620 5624 5629 5635 5640 5646 5650 5656 5663 5670 5678 5685 5694 5701 5707 5714 5714 5717 5722 5722 5735 5751 5754 5756 5761 5765 5767 5772 5777 5783 5787 5791 5796 5799 5801 5803 5806 5809 5811 5815 5817 5819 5824 5828 5829 5830 5831 5836 5838 5838 5839 5840 5841 5844 5845 5846 5850 5852 5854 5857 5858 5859 5861 5863 5864 5863 5864 5867 5868 5869 5870 5871 5872 5872 5873 5874 5875 5877
5570 5574 5578 5582 5586 5590 5594 5598 5603 5607 5612 5617 5622 5627 5632 5638 5643 5648 5655 5663 5670 5679 5688 5693 5702 5709 5707 5711 5714 5718 5738 5749 5745 5748 5756 5760 5763 5767 5773 5778 5783 5787 5792 5795 5796 5799 5803 5805 5809 5811 5812 5815 5820 5823 5825 5826 5828 5833 5835 5835 5836 5837 5838 5841 5842 5844 5848 5850 5852 5854 5855 5857 5859 5861 5862 5862 5862 5865 5867 5868 5869 5870 5870 5871 5871 5873 5874 5875
5564 5567 5571 5575 5578 5582 5587 5591 5595 5600 5604 5609 5614 5619 5625 5630 5635 5641 5649 5656 5663 5672 5682 5687 5696 5702 5702 5706 5709 5720 5739 5741 5738 5743 5749 5755 5760 5763 5769 5774 5778 5783 5787 5790 5792 5795 5799 5802 5805 5806 5807 5812 5816 5819 5821 5822 5825 5830 5832 5832 5834 5836 5837 5839 5840 5842 5845 5847 5849 5851 5852 5853 5857 5860 5861 5861 5861 5864 5865 5866 5867 5868 5869 5869 5870 5871 5873 5874
5557 5561 5564 5568 5571 5575 5579 5583 5588 5592 5597 5601 5606 5611 5617 5622 5627 5634 5642 5650 5658 5666 5677 5683 5689 5697 5698 5699 5705 5721 5734 5734 5735 5739 5743 5750 5755 5758 5764 5768 5772 5778 5782 5784 5787 5791 5795 5799 5802 5803 5805 5810 5814 5815 5816 5818 5822 5826 5828 5829 5832 5834 5834 5836 5838 5840 5843 5844 5846 5847 5848 5851 5857 5860 5859 5859 5859 5861 5863 5864 5865 5866 5867 5868 5869 5870 5871 5872
5551 5555 5558 5561 5564 5568 5572 5576 5580 5585 5589 5593 5599 5603 5609 5615 5621 5628 5635 5644 5653 5661 5672 5678 5682 5689 5688 5690 5705 5718 5725 5728 5731 5733 5737 5744 5748 5752 5757 5762 5767 5772 5775 5778 5782 5787 5792 5796 5799 5801 5803 5807 5810 5812 5812 5815 5820 5822 5824 5827 5829 5830 5830 5834 5836 5838 5840 5842 5844 5844 5845 5851 5856 5857 5856 5857 5858 5858 5860 5862 5863 5864 5866 5867 5867 5868 5869 5870
5545 5548 5552 5555 5558 5561 5565 5569 5573 5577 5581 5585 5590 5596 5602 5608 5614 5621 5629 5640 5650 5657 5667 5672 5676 5680 5680 5689 5703 5711 5717 5722 5723 5727 5733 5738 5743 5747 5751 5756 5761 5765 5769 5772 5777 5783 5788 5793 5796 5798 5800 5803 5807 5809 5810 5813 5817 5818 5820 5823 5825 5825 5828 5833 5834 5835 5837 5839 5841 5840 5843 5850 5854 5854 5853 5854 5856 5856 5858 5861 5862 5863 5864 5865 5866 5866 5867 5869
5538 5542 5545 5549 5552 5555 5558 5562 5566 5569 5573 5578 5584 5590 5596 5602 5608 5614 5623 5635 5647 5654 5662 5668 5671 5672 5675 5685 5696 5703 5709 5712 5716 5724 5729 5733 5737 5741 5745 5750 5754 5758 5763 5767 5772 5778 5783 5788 5791 5793 5796 5799 5803 5804 5805 5810 5813 5814 5816 5818 5821 5822 5828 5832 5831 5832 5835 5837 5838 5837 5841 5848 5849 5850 5850 5851 5854 5854 5856 5858 5859 5861 5862 5863 5864 5864 5865 5867
5533 5536 5540 5544 5547 5549 5552 5555 5559 5562 5567 5572 5578 5584 5590 5596 5602 5608 5617 5630 5642 5651 5656 5662 5667 5668 5670 5678 5689 5697 5699 5704 5715 5721 5723 5728 5733 5737 5741 5744 5748 5753 5757 5762 5768 5773 5777 5781 5785 5788 5791 5794 5798 5799 5800 5805 5808 5810 5812 5814 5817 5820 5826 5829 5828 5831 5833 5833 5835 5836 5841 5845 5844 5846 5849 5851 5852 5852 5853 5855 5856 5858 5859 5860 5861 5863 5864 5865
5528 5531 5534 5538 5541 5544 5547 5550 5553 5557 5562 5567 5573 5580 5585 5591 5597 5602 5611 5622 5634 5643 5649 5655 5663 5665 5664 5672 5683 5689 5693 5702 5712 5715 5718 5724 5728 5733 5736 5738 5742 5747 5751 5757 5761 5767 5771 5774 5778 5782 5785 5788 5792 5794 5795 5799 5803 5805 5807 5809 5813 5816 5822 5824 5825 5830 5830 5830 5833 5834 5838 5841 5841 5844 5847 5849 5849 5849 5850 5851 5853 5855 5856 5858 5859 5861 5862 5863
5523 5526 5529 5533 5537 5540 5542 5546 5549 5553 5558 5563 5569 5575 5580 5585 5590 5595 5603 5613 5623 5633 5641 5648 5653 5652 5653 5663 5674 5683 5691 5699 5706 5710 5714 5719 5722 5727 5732 5734 5737 5741 5745 5749 5754 5760 5764 5768 5772 5776 5779 5782 5786 5788 5791 5797 5801 5802 5803 5805 5810 5813 5817 5821 5824 5829 5828 5828 5831 5832 5835 5839 5839 5842 5844 5845 5845 5845 5846 5848 5850 5852 5854 5856 5858 5859 5860 5862
5518 5522 5525 5529 5534 5537 5540 5543 5546 5550 5554 5558 5563 5570 5574 5578 5582 5588 5595 5604 5613 5622 5628 5634 5638 5640 5645 5655 5666 5678 5686 5690 5698 5703 5706 5711 5715 5721 5725 5726 5730 5735 5737 5741 5747 5752 5758 5762 5765 5769 5772 5777 5783 5786 5790 5795 5797 5799 5800 5804 5808 5810 5815 5819 5821 5826 5826 5826 5828 5829 5833 5836 5836 5838 5840 5841 5841 5842 5843 5845 5847 5849 5851 5854 5856 5857 5858 5860
5514 5518 5522 5525 5529 5534 5538 5541 5544 5548 5551 5554 5559 5564 5567 5571 5576 5580 5586 5596 5606 5615 5621 5628 5636 5640 5646 5656 5665 5674 5678 5680 5687 5693 5698 5706 5710 5714 5717 5717 5722 5725 5728 5735 5742 5747 5752 5754 5758 5765 5770 5775 5780 5783 5786 5790 5792 5795 5797 5800 5804 5806 5812 5816 5816 5821 5824 5823 5825 5827 5829 5832 5833 5834 5836 5837 5838 5840 5841 5843 5845 5847 5849 5851 5853 5854 5855 5857
5509 5514 5518 5522 5525 5530 5534 5538 5541 5545 5548 5552 5556 5560 5565 5570 5574 5580 5587 5595 5602 5610 5619 5628 5636 5640 5647 5654 5660 5666 5669 5670 5678 5686 5693 5699 5702 5707 5708 5710 5714 5715 5723 5733 5737 5742 5745 5746 5755 5766 5770 5773 5776 5778 5782 5786 5788 5791 5792 5796 5801 5803 5808 5811 5810 5816 5821 5820 5822 5824 5825 5829 5831 5832 5834 5835 5836 5839 5840 5842 5843 5845 5846 5848 5850 5852 5854 5855
5505 5509 5514 5518 5522 5526 5531 5536 5539 5542 5546 5549 5553 5558 5563 5568 5574 5582 5588 5593 5597 5605 5614 5624 5631 5637 5644 5649 5651 5655 5657 5661 5669 5677 5684 5688 5693 5698 5701 5704 5708 5713 5723 5726 5725 5731 5734 5742 5757 5766 5767 5768 5771 5774 5778 5782 5784 5785 5787 5792 5797 5800 5804 5805 5806 5812 5818 5818 5819 5820 5823 5826 5829 5830 5831 5831 5835 5838 5838 5839 5841 5842 5843 5845 5848 5850 5851 5852
5501 5506 5511 5515 5518 5523 5528 5533 5536 5539 5543 5546 5552 5556 5560 5566 5570 5574 5579 5585 5592 5598 5607 5618 5627 5633 5639 5643 5644 5646 5649 5656 5664 5670 5677 5682 5687 5692 5696 5700 5705 5712 5716 5714 5717 5724 5730 5745 5759 5760 5760 5763 5765 5769 5774 5777 5779 5780 5782 5787 5794 5797 5799 5800 5804 5809 5814 5815 5816 5817 5819 5823 5825 5826 5827 5829 5832 5836 5835 5835 5838 5839 5841 5844 5846 5847 5848 5850
5498 5503 5508 5512 5516 5520 5525 5530 5533 5537 5540 5544 5549 5552 5557 5563 5565 5568 5574 5581 5585 5591 5601 5612 5620 5625 5632 5637 5638 5639 5644 5652 5659 5666 5673 5678 5684 5687 5692 5698 5703 5705 5706 5710 5718 5726 5736 5750 5755 5752 5753 5757 5759 5764 5768 5770 5774 5775 5776 5783 5791 5794 5795 5798 5801 5806 5809 5810 5812 5814 5815 5818 5822 5823 5825 5827 5829 5831 5832 5832 5835 5836 5839 5842 5843 5845 5847 5847
5496 5500 5505 5510 5514 5519 5523 5527 5530 5534 5538 5541 5543 5548 5554 5558 5561 5566 5572 5575 5579 5585 5593 5602 5611 5618 5625 5631 5634 5635 5639 5645 5651 5661 5669 5673 5678 5684 5690 5696 5698 5698 5702 5709 5717 5724 5733 5742 5744 5745 5748 5750 5754 5759 5762 5766 5770 5771 5773 5781 5788 5790 5792 5794 5797 5801 5804 5806 5808 5810 5809 5813 5819 5820 5822 5825 5825 5827 5830 5831 5832 5834 5837 5840 5842 5844 5845 5845
5492 5496 5502 5507 5511 5517 5520 5522 5526 5529 5534 5537 5541 5547 5551 5555 5559 5563 5567 5570 5572 5578 5584 5594 5605 5613 5618 5625 5629 5630 5633 5637 5644 5656 5664 5666 5672 5681 5687 5691 5692 5694 5701 5708 5713 5717 5723 5731 5735 5739 5743 5746 5750 5754 5759 5763 5766 5768 5773 5781 5785 5786 5788 5789 5792 5795 5798 5801 5804 5805 5805 5808 5815 5818 5819 5822 5823 5825 5828 5829 5831 5833 5835 5838 5840 5841 5842 5843
5487 5492 5498 5502 5508 5513 5515 5517 5522 5525 5529 5533 5539 5544 5548 5552 5555 5558 5563 5564 5566 5571 5578 5588 5599 5607 5614 5620 5623 5624 5628 5634 5641 5650 5656 5658 5665 5676 5681 5684 5687 5692 5697 5701 5703 5706 5714 5721 5726 5732 5739 5741 5744 5750 5756 5759 5762 5767 5775 5779 5780 5781 5783 5785 5787 5790 5794 5797 5798 5801 5802 5803 5809 5816 5817 5818 5821 5822 5825 5827 5829 5832 5834 5835 5837 5838 5840 5841
5485 5489 5494 5499 5503 5506 5508 5513 5518 5521 5524 5530 5537 5541 5545 5548 5550 5555 5559 5557 5561 5569 5574 5583 5594 5602 5609 5615 5617 5620 5623 5630 5637 5643 5649 5653 5660 5671 5676 5678 5684 5690 5693 5693 5695 5704 5711 5715 5722 5731 5735 5737 5743 5749 5753 5756 5759 5764 5770 5771 5773 5775 5778 5781 5783 5786 5789 5790 5792 5796 5800 5799 5803 5812 5815 5814 5817 5820 5823 5825 5827 5829 5830 5830 5832 5835 5836 5837
5482 5486 5491 5495 5497 5499 5503 5508 5513 5517 5521 5527 5533 5537 5541 5544 5547 5551 5551 5551 5559 5568 5573 5580 5588 5595 5603 5608 5613 5617 5618 5622 5627 5634 5644 5648 5653 5663 5670 5674 5681 5686 5689 5692 5698 5704 5707 5713 5722 5727 5729 5736 5743 5744 5746 5751 5754 5757 5761 5764 5767 5769 5771 5775 5777 5781 5784 5784 5787 5792 5797 5797 5797 5805 5812 5811 5814 5819 5821 5822 5823 5825 5826 5827 5829 5831 5832 5834
5478 5483 5487 5491 5493 5496 5500 5504 5509 5514 5518 5523 5527 5531 5536 5538 5541 5542 5542 5547 5557 5564 5569 5575 5581 5590 5598 5604 5609 5613 5615 5616 5620 5629 5638 5642 5647 5658 5667 5672 5676 5680 5683 5689 5694 5696 5701 5710 5714 5715 5722 5732 5736 5737 5742 5746 5747 5750 5754 5758 5762 5763 5765 5768 5771 5777 5779 5779 5784 5789 5793 5794 5792 5797 5806 5810 5813 5817 5819 5818 5819 5821 5823 5824 5826 5828 5829 5830
5475 5479 5483 5487 5489 5493 5498 5501 5507 5513 5517 5520 5523 5527 5530 5532 5534 5534 5538 5550 5559 5561 5564 5568 5574 5585 5593 5600 5606 5609 5612 5612 5616 5624 5630 5635 5642 5651 5658 5663 5668 5673 5677 5681 5685 5689 5695 5700 5701 5708 5717 5722 5725 5732 5737 5739 5741 5744 5747 5752 5757 5758 5760 5764 5767 5771 5772 5775 5781 5785 5786 5787 5788 5792 5800 5809 5814 5815 5815 5815 5816 5818 5819 5821 5823 5824 5825 5827
5471 5476 5480 5483 5486 5491 5496 5499 5505 5511 5515 5517 5520 5523 5525 5526 5527 5528 5537 5550 5554 5555 5560 5563 5569 5578 5588 5596 5601 5605 5609 5609 5613 5618 5622 5629 5636 5642 5651 5658 5664 5668 5669 5674 5680 5685 5689 5691 5695 5706 5712 5713 5718 5725 5728 5731 5736 5738 5742 5747 5750 5752 5755 5758 5762 5765 5768 5772 5776 5779 5779 5780 5786 5792 5796 5805 5813 5812 5812 5813 5813 5814 5816 5818 5819 5821 5822 5823
5469 5473 5476 5480 5483 5488 5493 5497 5502 5508 5511 5513 5515 5518 5520 5520 5521 5528 5539 5546 5546 5551 5558 5561 5567 5575 5583 5589 5593 5600 5605 5606 5608 5614 5618 5626 5634 5641 5651 5658 5662 5665 5666 5671 5676 5681 5684 5685 5690 5698 5703 5705 5710 5714 5719 5725 5731 5735 5741 5744 5744 5746 5749 5753 5757 5760 5764 5768 5771 5773 5774 5777 5786 5791 5793 5800 5807 5808 5809 5810 5810 5811 5812 5814 5816 5817 5819 5820
5465 5470 5473 5477 5481 5485 5490 5495 5500 5504 5507 5508 5510 5512 5513 5514 5521 5531 5538 5540 5544 5552 5556 5559 5565 5570 5575 5583 5591 5597 5601 5601 5604 5610 5616 5622 5628 5634 5642 5649 5654 5660 5664 5667 5671 5676 5679 5678 5681 5690 5696 5700 5704 5711 5720 5728 5732 5736 5740 5739 5738 5740 5746 5751 5755 5758 5762 5766 5768 5768 5770 5776 5784 5789 5790 5795 5800 5803 5804 5806 5807 5807 5809 5811 5813 5815 5816 5817
5462 5466 5470 5474 5478 5483 5487 5492 5497 5499 5501 5503 5505 5506 5507 5512 5522 5529 5532 5537 5545 5551 5553 5556 5561 5563 5568 5578 5587 5592 5595 5598 5601 5606 5612 5617 5622 5629 5636 5642 5649 5654 5658 5661 5666 5672 5675 5676 5681 5688 5694 5699 5704 5710 5718 5722 5723 5727 5730 5730 5731 5737 5745 5749 5751 5755 5758 5760 5762 5764 5767 5774 5781 5784 5786 5789 5794 5798 5799 5801 5804 5805 5806 5808 5810 5812 5813 5814
5458 5463 5467 5470 5475 5481 5485 5488 5492 5494 5497 5499 5499 5501 5506 5515 5523 5527 5531 5538 5545 5548 5551 5554 5555 5557 5563 5571 5577 5583 5588 5592 5595 5600 5608 5614 5619 5627 5634 5641 5647 5653 5658 5661 5664 5667 5669 5673 5680 5685 5689 5695 5700 5704 5708 5711 5713 5717 5719 5720 5727 5735 5740 5742 5745 5749 5751 5752 5755 5759 5765 5771 5775 5778 5782 5785 5789 5793 5794 5796 5799 5801 5803 5804 5806 5808 5809 5810
5456 5460 5463 5467 5472 5478 5481 5485 5488 5491 5493 5494 5495 5500 5508 5515 5519 5522 5527 5535 5540 5543 5547 5549 5550 5553 5558 5563 5570 5578 5582 5586 5589 5594 5601 5609 5615 5621 5629 5636 5642 5650 5656 5659 5662 5663 5664 5669 5675 5680 5685 5690 5695 5700 5703 5705 5708 5710 5711 5718 5728 5732 5731 5735 5740 5743 5745 5748 5751 5757 5762 5766 5769 5774 5778 5781 5786 5789 5789 5790 5793 5796 5798 5800 5802 5803 5805 5806
5453 5457 5461 5465 5470 5475 5478 5481 5484 5487 5488 5489 5493 5500 5506 5510 5513 5517 5523 5530 5533 5536 5540 5543 5546 5551 5554 5558 5566 5573 5578 5582 5586 5589 5595 5603 5610 5616 5625 5631 5637 5646 5652 5655 5657 5659 5661 5665 5669 5673 5679 5683 5687 5692 5693 5695 5700 5704 5710 5719 5724 5723 5724 5730 5735 5738 5742 5744 5748 5753 5757 5759 5764 5771 5775 5778 5783 5785 5784 5785 5788 5791 5793 5795 5798 5799 5800 5801
5450 5454 5457 5461 5466 5471 5474 5478 5481 5483 5483 5484 5490 5497 5501 5505 5509 5514 5520 5524 5527 5531 5534 5538 5544 5549 5551 5555 5562 5568 5572 5579 5585 5588 5592 5598 5605 5613 5621 5628 5634 5642 5647 5649 5652 5655 5658 5660 5662 5668 5674 5677 5679 5680 5682 5687 5694 5699 5705 5711 5714 5715 5720 5727 5732 5736 5739 5741 5745 5748 5750 5755 5762 5769 5771 5774 5777 5778 5779 5781 5783 5785 5788 5791 5793 5795 5796 5797
5447 5451 5454 5459 5463 5466 5470 5474 5476 5477 5479 5482 5488 5494 5499 5503 5506 5510 5515 5518 5522 5527 5530 5534 5540 5546 5550 5554 5558 5563 5568 5574 5583 5588 5590 5595 5602 5608 5615 5622 5629 5637 5642 5644 5647 5650 5652 5654 5658 5664 5667 5668 5669 5671 5677 5686 5691 5695 5699 5702 5705 5708 5714 5721 5726 5730 5732 5734 5739 5742 5745 5753 5760 5763 5766 5770 5773 5772 5775 5778 5778 5781 5784 5786 5788 5790 5790 5792
5444 5448 5451 5455 5459 5462 5465 5469 5472 5474 5477 5480 5485 5490 5495 5498 5501 5504 5508 5513 5517 5522 5526 5530 5536 5543 5549 5552 5555 5560 5563 5569 5577 5584 5586 5591 5598 5604 5611 5619 5625 5631 5634 5636 5640 5645 5647 5649 5654 5659 5660 5661 5666 5672 5680 5686 5688 5692 5696 5699 5702 5705 5708 5713 5717 5722 5726 5729 5735 5738 5741 5750 5756 5757 5761 5766 5768 5769 5771 5773 5774 5775 5778 5780 5782 5784 5785 5787
5441 5445 5448 5452 5455 5458 5461 5465 5468 5471 5474 5477 5482 5486 5490 5493 5496 5499 5504 5509 5513 5518 5523 5528 5533 5540 5546 5550 5553 5556 5558 5563 5572 5578 5583 5589 5595 5603 5610 5615 5620 5624 5627 5632 5638 5643 5644 5646 5651 5654 5657 5661 5666 5670 5675 5679 5683 5687 5689 5692 5696 5698 5701 5707 5713 5722 5727 5729 5734 5735 5736 5745 5753 5754 5756 5761 5763 5765 5766 5768 5769 5771 5772 5774 5776 5779 5781 5782
5438 5441 5445 5448 5451 5454 5457 5460 5463 5466 5469 5474 5478 5482 5485 5489 5492 5497 5503 5507 5511 5516 5521 5525 5530 5537 5543 5547 5551 5553 5555 5560 5567 5575 5582 5588 5594 5601 5605 5609 5614 5618 5622 5627 5632 5635 5637 5641 5646 5650 5654 5658 5660 5663 5668 5672 5675 5676 5677 5682 5686 5688 5697 5706 5712 5719 5720 5722 5728 5728 5730 5742 5750 5750 5751 5755 5758 5760 5761 5763 5764 5765 5767 5769 5772 5774 5776 5778
5433 5437 5440 5443 5446 5449 5452 5456 5459 5463 5467 5470 5473 5477 5481 5485 5490 5496 5501 5504 5508 5513 5518 5523 5528 5533 5538 5543 5548 5552 5554 5558 5564 5571 5580 5586 5590 5594 5599 5603 5607 5612 5617 5622 5625 5628 5633 5636 5640 5644 5648 5650 5651 5654 5658 5661 5665 5668 5673 5678 5682 5688 5696 5700 5705 5709 5708 5713 5721 5721 5726 5740 5746 5743 5744 5748 5751 5753 5755 5757 5759 5760 5762 5764 5767 5770 5771 5773
5430 5432 5436 5439 5442 5446 5450 5453 5457 5460 5463 5465 5469 5473 5478 5483 5489 5494 5498 5501 5505 5510 5514 5519 5523 5527 5532 5537 5543 5549 5552 5556 5560 5566 5574 5580 5583 5587 5592 5596 5600 5606 5613 5617 5620 5624 5628 5631 5636 5640 5642 5643 5646 5649 5653 5659 5664 5668 5672 5677 5681 5686 5690 5693 5698 5697 5697 5707 5713 5713 5723 5736 5738 5736 5737 5740 5745 5747 5749 5752 5753 5755 5757 5759 5762 5764 5766 5768
5426 5428 5431 5435 5438 5442 5446 5450 5453 5456 5459 5462 5466 5471 5476 5483 5489 5493 5496 5499 5503 5507 5511 5515 5519 5523 5527 5532 5538 5545 5550 5553 5556 5561 5567 5571 5575 5580 5586 5591 5595 5601 5607 5611 5614 5617 5620 5625 5630 5635 5638 5642 5646 5650 5656 5660 5663 5665 5670 5674 5676 5679 5681 5684 5685 5685 5694 5705 5704 5707 5723 5730 5730 5731 5732 5735 5740 5742 5744 5747 5747 5749 5751 5754 5756 5759 5760 5762
5422 5424 5429 5432 5435 5439 5442 5445 5449 5453 5457 5461 5465 5470 5475 5482 5487 5490 5492 5495 5499 5503 5507 5511 5516 5520 5525 5530 5535 5541 5548 5551 5553 5557 5561 5565 5570 5576 5581 5586 5591 5595 5600 5605 5609 5612 5616 5620 5624 5629 5634 5638 5641 5646 5651 5654 5658 5663 5668 5669 5671 5673 5674 5674 5676 5685 5698 5697 5694 5708 5722 5724 5726 5727 5727 5732 5737 5736 5739 5741 5742 5744 5747 5749 5750 5751 5753 5755
5418 5422 5427 5430 5433 5437 5441 5446 5450 5453 5456 5459 5464 5468 5473 5478 5481 5484 5488 5492 5495 5499 5503 5507 5512 5518 5523 5527 5532 5538 5545 5550 5553 5555 5557 5561 5567 5573 5577 5582 5586 5589 5593 5597 5602 5607 5611 5615 5621 5625 5629 5632 5635 5640 5644 5648 5653 5658 5660 5663 5666 5668 5668 5671 5678 5689 5694 5687 5694 5713 5718 5716 5722 5723 5722 5729 5731 5731 5734 5735 5736 5739 5740 5742 5743 5744 5746 5748
5416 5420 5424 5427 5430 5434 5440 5444 5447 5450 5452 5456 5460 5465 5470 5473 5477 5482 5486 5489 5492 5496 5500 5504 5511 5516 5520 5525 5529 5534 5542 5549 5551 5553 5555 5558 5562 5567 5572 5576 5580 5584 5588 5592 5597 5602 5606 5612 5617 5620 5624 5627 5630 5634 5639 5643 5646 5649 5652 5657 5660 5661 5665 5671 5677 5686 5686 5685 5698 5711 5708 5709 5717 5717 5718 5722 5722 5724 5727 5726 5729 5733 5734 5735 5737 5738 5740 5742
5413 5416 5420 5424 5427 5432 5436 5438 5441 5444 5448 5451 5455 5461 5466 5470 5475 5480 5483 5486 5490 5495 5499 5505 5512 5517 5520 5523 5527 5532 5540 5547 5549 5550 5552 5554 5558 5562 5566 5571 5575 5580 5583 5586 5592 5597 5602 5608 5613 5617 5618 5620 5623 5629 5634 5637 5640 5644 5647 5651 5654 5656 5661 5665 5672 5678 5679 5683 5696 5701 5697 5702 5708 5709 5711 5713 5714 5717 5718 5718 5724 5728 5727 5729 5731 5733 5735 5737
5409 5413 5417 5420 5424 5428 5432 5435 5439 5442 5444 5447 5453 5459 5463 5468 5475 5479 5480 5484 5490 5494 5499 5506 5512 5514 5516 5519 5523 5530 5538 5543 5545 5546 5547 5550 5553 5556 5560 5565 5571 5574 5577 5582 5587 5593 5598 5602 5608 5612 5612 5614 5620 5624 5627 5631 5635 5635 5638 5643 5647 5652 5657 5663 5671 5674 5674 5681 5690 5690 5689 5698 5702 5703 5706 5706 5706 5709 5710 5715 5721 5721 5721 5724 5726 5727 5729 5731
5407 5411 5414 5417 5421 5424 5429 5432 5435 5437 5441 5446 5453 5458 5462 5469 5474 5475 5476 5481 5487 5492 5498 5504 5506 5508 5510 5515 5523 5531 5537 5539 5539 5539 5540 5542 5545 5549 5553 5559 5564 5567 5572 5577 5581 5587 5592 5595 5602 5608 5609 5613 5617 5618 5622 5625 5622 5621 5631 5642 5647 5652 5657 5662 5666 5668 5670 5676 5680 5681 5689 5697 5697 5696 5699 5699 5699 5704 5708 5713 5715 5715 5716 5718 5719 5720 5722 5725